Home > Weather > Wismar > Past weeks

Flag for Germany Weather for the Past 2 Weeks in Wismar, Mecklenburg-Western Pomerania, Germany

Now
41 °F

Light rain. Passing clouds.


Feels Like: 35 °F
Forecast: 38 / 43 °F
Wind: 10 mph from East

Location: Luebeck-Blankensee

Current Time: Feb 9, 2016 at 10:04:44 PM

Latest Report: Feb 9, 2016 at 7:50 PM


Visibility: N/A

Pressure: 28.88 "Hg

Humidity: 93%

Dew point: 39 °F

Location of WismarLocation

Historic Weather in Wismar — Graph

°F

Wismar Temperature Yesterday

Maximum temperature yesterday: 50 °F (at 1:50 PM)
Minimum temperature yesterday: 43 °F (at 5:50 PM)
Average temperature yesterday: 46 °F

High & Low Weather Summary for the Past Weeks

 TemperatureHumidityPressure
High54 °F (Feb 7, 2:20 PM)100% (Jan 25, 7:20 PM)30.18 "Hg (Jan 25, 7:20 PM)
Low34 °F (Feb 5, 6:50 AM)54% (Feb 2, 3:20 PM)28.88 "Hg (Feb 9, 7:50 PM)
Average45 °F82%29.73 "Hg
* Reported Jan 25 7:20 PM — Feb 9 7:50 PM, Wismar, Weather by CustomWeather, © 2016

Note: Actual official high and low records may vary slightly from our data, if they occured in-between our weather recording intervals... More about our weather records

Advertising

Wismar Weather History for the Previous 24 Hours

 ConditionsComfort  
Time TempWeatherWind HumidityBarometerVisibility
7:50 PM
Tue, Feb 9
41 °FLight rain. Passing clouds.10 mph93%28.88 "HgN/A
7:20 PM41 °FLight rain. Passing clouds.8 mph93%28.91 "Hg6 mi
6:50 PM43 °FLight rain. Passing clouds.9 mph87%28.94 "HgN/A
6:20 PM43 °FLight rain. Passing clouds.8 mph87%29.00 "HgN/A
5:50 PM43 °FLight rain. Passing clouds.7 mph81%29.03 "HgN/A
4:50 PM43 °FPartly sunny.6 mph81%29.06 "HgN/A
4:20 PM43 °FPartly sunny.7 mph81%29.09 "HgN/A
3:50 PM45 °FPartly sunny.7 mph76%29.12 "HgN/A
3:20 PM45 °FSunny.9 mph71%29.12 "Hg10 mi
2:50 PM45 °FBroken clouds.9 mph71%29.15 "HgN/A
2:20 PM46 °FBroken clouds.10 mph66%29.15 "HgN/A
1:50 PM46 °FPartly sunny.12 mph66%29.18 "HgN/A
1:20 PM46 °FPassing clouds.12 mph71%29.21 "HgN/A
12:50 PM46 °FScattered clouds.14 mph66%29.21 "HgN/A
12:20 PM46 °FBroken clouds.15 mph66%29.21 "HgN/A
11:20 AM46 °FPartly sunny.17 mph66%29.24 "HgN/A
10:50 AM46 °FScattered clouds.17 mph66%29.24 "HgN/A
10:20 AM45 °FPassing clouds.20 mph71%29.24 "HgN/A
9:50 AM45 °FPartly sunny.18 mph71%29.27 "HgN/A
8:50 AM45 °FPartly sunny.20 mph66%29.24 "HgN/A
8:20 AM45 °FPartly sunny.21 mph71%29.24 "HgN/A
7:50 AM45 °FPartly sunny.21 mph76%29.24 "HgN/A
6:50 AM43 °FLight rain. Passing clouds.22 mph87%29.21 "HgN/A
Weather by CustomWeather, © 2016

See weather overviewHow to use our weather pages